Retour au catalogue

STARLINK-31684

ActifCommunicationsVLEO
NORAD 59492·PAYLOAD·🇺🇸 United States

Lancé Apr 13, 2024 depuis Cape Canaveral Space Force Station

Loading…

Prochains Passages (prochaines 24 heures)

TLE

FraisSource: CelesTrak SupGP

Époque: Sep 14, 2026, 22:37 UTC

1 59492C 24071J   26257.94284722 -.00019338  00000+0 -70039-3 0  2577
2 59492  43.0022 358.5583 0001556 268.9447  10.1071 15.27589076    17

Suivez STARLINK-31684 en temps réel avec AllMySat

Download on the App Store